STARLINK-1916, 46766

Orbit data source: Space-Track

STARLINK-1916, 46766 is a payload satellite owned by SpaceX/Seattle (US) in LEO that was launched on Sat, 24 Oct 2020 UTC via an FALCON 9 launch vehicle from the Air Force Eastern Test Range (AFETR). Payloads include a variety of satellites, spacecraft, and rockets equipped with specific instruments for various scientific and technological missions. These include communications satellites like Starlink; space stations such as the ISS; scientific satellites like the Hubble; Earth observation satellites from companies like Planet Labs, Umbra, and HawkEye 360; GPS; miniature CubeSats for education and research; and military/defense satellites.

Loading next visibility...
STARLINK-1916 details
Identifier
46766, 2020-074AD
Orbit
LEO
Last TLE update19 hours ago
Origin
Flag of USSpaceX/Seattle (US)
ManufacturerSpaceX/Seattle
MissionOperational Commercial Communications
Bus & MotorSTARLINK, Unknown motor
Mass260 kg wet, ~248 kg dry
Launch date (UTC)
2020-10-24 (4 years ago)
Launch vehicle
FALCON 9
Launch site
Air Force Eastern Test Range (AFETR)
Object type
Payload
Rocket body
Debris
Shape & HBRBox + 1 Pan, 8.86 m
Radar Cross Section13.562 m², Large (>1 m²)

Expand to show TLE details & history

TLE from 19 hours ago
0 STARLINK-1916
1 46766U 20074AD  24360.62203962  .00002170  00000-0  16456-3 0  9992
2 46766  53.0533 147.6654 0001111  74.8649 285.2463 15.06392291230299
Epoch: 2024-12-25T14:55Z
Definitive object data (Epoch: 2024-12-25T14:55:44.223Z)
Latitude0.00001°
Longitude-170.882°
Altitude547.912 km
Speed7.589 km/s
True Right ascension09h 50m 39s
True Declination0° 00' 00"
Sunlit
Object was in full shadow at TLE epoch
Visualization TLE readout
Latitude-9.27578°
Longitude178.53554°
Altitude549.753 km
Speed7.588 km/s
Apparent Right ascension08h 38m 30s
Apparent Declination-69° 15' 15"
Sunlit
Object is in full shadow
Visualization observer readout
Local Sidereal Time09:20:15
Azimuth183.902° SSW
Elevation-19.443°
Doppler factor1
Orbital elements
Apogee altitude548.276 km
Perigee altitude546.737 km
Semi-major axis6,925.643 km
Eccentricity0.0001111
Inclination53.0533°
RAAN147.6654°
Arg. of periapsis74.8649°
True anomaly285.23402°
Mean anomaly285.2463°
Eccentric anomaly285.24016°
Mean motion3.76576 °/min
BSTAR0.00016456
Orbital period95.6 mins
Loading maneuver chart data...

STARLINK-1916 Visibility forecast

Observer location: undefined°, undefined

Span
Click to sort rows by Start time (UTC) header in descending order
Start Az.
Max El. time (UTC)
Max El. Az.
Max El.
End time (UTC)
End Az.
6 mins2024-12-26 11:47:08.518Z180.946° SSW2024-12-26 11:50:08.518Z119.869° SE24.232°2024-12-26 11:53:08.518Z72.499° E
5 mins2024-12-26 13:27:08.518Z269.067° W2024-12-26 13:29:08.518Z328.133° NNW34.541°2024-12-26 13:32:08.518Z34.946° NE
5 mins2024-12-26 18:29:08.518Z343.92° N2024-12-26 18:31:08.518Z36.11° NE28.388°2024-12-26 18:34:08.518Z91.352° ESE
6 mins2024-12-26 20:08:08.518Z285.929° WNW2024-12-26 20:10:08.518Z241.212° WSW32.244°2024-12-26 20:14:08.518Z158.029° S
|